This demonstration page uses our WeatherBlox Daily Observations layout. Learn more.

Left ArrowRight Arrow

39.92423, -83.80882

Hourly Observations for April 12, 2020

Temp ( °F °C ) Dew Point ( °F °C ) Humidity (%) Winds ( mph kmh ) Pressure ( in mb ) Visibility ( mi km ) Precip ( " mm )
12:56 am 00:56 Cloudy 48 8.9 34 1.1 58 58 SSE 3 6 29.91 1013 10 16.0934 0 0
1:56 am 01:56 Cloudy with Light Rain 48 8.9 36 2.2 63 63 WSW 8 13 29.96 1014 10 16.0934 0.001 0.001
2:56 am 02:56 Cloudy with Light Rain 44 6.7 42 5.6 93 93 ENE 7 11 29.92 1013 10 16.0934 0.02 0.508
3:56 am 03:56 Mostly Cloudy with Light Rain 44 6.7 42 5.6 93 93 ENE 8 13 29.87 1012 10 16.0934 0.001 0.001
4:56 am 04:56 Cloudy 44 6.7 43 6.1 96 96 ESE 5 7 29.88 1012 10 16.0934 0.001 0.001
5:56 am 05:56 Cloudy 44 6.7 41 5 89 89 ESE 8 13 29.86 1011 10 16.0934 0 0
6:56 am 06:56 Cloudy 45 7.2 40 4.4 83 83 ESE 8 13 29.85 1011 10 16.0934 0 0
7:56 am 07:56 Cloudy 48 8.9 39 3.9 71 71 SSE 8 13 29.86 1011 10 16.0934 0 0
8:56 am 08:56 Cloudy 49 9.4 41 5 74 74 SSE 9 15 29.88 1012 10 16.0934 0 0
9:56 am 09:56 Mostly Cloudy 55 12.8 42 5.6 62 62 S 5 7 29.89 1012 10 16.0934 0 0
10:56 am 10:56 Cloudy 57 13.9 42 5.6 58 58 S 8 13 29.87 1012 10 16.0934 0 0
11:56 am 11:56 Cloudy 58 14.4 41 5 53 53 S 14 22 29.85 1011 10 16.0934 0 0
12:56 pm 12:56 Cloudy with Light Rain 54 12.2 47 8.3 77 77 S 9 15 29.87 1012 9 14.48406 0.001 0.001
1:56 pm 13:56 Cloudy 62 16.7 50 10 65 65 S 13 20 29.82 1010 10 16.0934 0.001 0.001
2:56 pm 14:56 Mostly Cloudy 63 17.2 48 8.9 58 58 SSW 17 28 29.79 1009 10 16.0934 0 0
3:56 pm 15:56 Cloudy 61 16.1 46 7.8 58 58 S 16 26 29.74 1007 10 16.0934 0 0
4:56 pm 16:56 Cloudy 61 16.1 46 7.8 58 58 S 14 22 29.73 1007 10 16.0934 0 0
5:56 pm 17:56 Cloudy 60 15.6 47 8.3 62 62 S 12 19 29.72 1006 10 16.0934 0 0
6:56 pm 18:56 Cloudy with Light Rain 58 14.4 49 9.4 72 72 SE 8 13 29.68 1005 10 16.0934 0.001 0.001
7:42 pm 19:42 Cloudy with Rain 54 12 54 12 100 100 SE 10 17 29.67 1005 6 9.65604 0.06 1.524
7:56 pm 19:56 Cloudy with Light Rain 53 11.7 53 11.7 100 100 SE 16 26 29.67 1005 10 16.0934 0.09 2.286
8:56 pm 20:56 Cloudy with Light Rain 51 10.6 51 10.6 100 100 ESE 15 24 29.58 1002 10 16.0934 0.1 2.54
9:11 pm 21:11 Cloudy with Light Rain 52 11 52 11 100 100 ESE 14 22 29.55 1001 10 16.0934 0.001 0.001
9:20 pm 21:20 Mostly Cloudy with Light Rain 52 11 52 11 100 100 ESE 14 22 29.57 1001 10 16.0934 0.001 0.001
9:46 pm 21:46 Cloudy 54 12 54 12 100 100 SE 14 22 29.56 1001 10 16.0934 0.001 0.001
9:56 pm 21:56 Cloudy 53 11.7 53 11.7 100 100 ESE 17 28 29.56 1001 10 16.0934 0.001 0.001
10:06 pm 22:06 Cloudy 54 12 54 12 100 100 SE 15 24 29.55 1001 10 16.0934 0 0
10:46 pm 22:46 Cloudy with Light Rain 54 12 54 12 100 100 SE 14 22 29.52 1000 6 9.65604 0.04 1.016
10:56 pm 22:56 Cloudy with Light Rain 54 12.2 54 12.2 100 100 SE 10 17 29.51 999 8 12.87472 0.07 1.778
11:56 pm 23:56 Cloudy with Light Rain 54 12.2 54 12.2 100 100 SSE 7 11 29.47 998 9 14.48406 0.04 1.016

Powered by AerisWeather